Precipitable_Water
0.99 0.99 0.96 0.98 1.00 1.01 1.00 0.97 1.01 1.05 1.08 1.14 1.18 1.25 1.24 1.26 1.35 1.35 1.35 1.37 1.38 1.38 1.40 1.43 1.44 1.44 1.47 1.53 1.52 1.53 1.54 1.56 1.59 1.62 1.63 1.63 1.60 1.62 1.61 1.63 1.67 1.63
0.97 0.99 0.97 0.93 0.92 0.98 1.02 1.02 1.01 1.01 1.05 1.09 1.13 1.20 1.28 1.32 1.32 1.33 1.32 1.31 1.34 1.34 1.37 1.42 1.43 1.42 1.42 1.43 1.47 1.47 1.48 1.51 1.50 1.61 1.58 1.59 1.58 1.60 1.62 1.67 1.68 1.70
0.95 0.96 0.98 0.93 0.87 0.86 0.92 0.99 1.01 1.02 1.03 1.07 1.13 1.16 1.19 1.28 1.29 1.29 1.31 1.29 1.28 1.29 1.32 1.36 1.40 1.43 1.41 1.38 1.39 1.40 1.40 1.41 1.42 1.49 1.51 1.50 1.55 1.56 1.62 1.65 1.64 1.65
0.92 0.93 0.95 0.95 0.91 0.86 0.89 0.91 0.91 0.96 0.98 1.02 1.07 1.11 1.11 1.13 1.19 1.20 1.22 1.26 1.27 1.29 1.29 1.31 1.32 1.35 1.36 1.36 1.34 1.31 1.33 1.36 1.40 1.44 1.41 1.44 1.48 1.52 1.55 1.62 1.62 1.59
0.90 0.90 0.93 0.97 0.95 0.92 0.92 0.89 0.85 0.85 0.88 0.91 0.99 1.05 1.07 1.06 1.07 1.11 1.15 1.18 1.23 1.28 1.31 1.28 1.29 1.29 1.30 1.30 1.29 1.24 1.27 1.28 1.33 1.36 1.33 1.31 1.38 1.43 1.46 1.53 1.55 1.52
0.96 0.90 0.89 0.91 0.95 0.94 0.91 0.88 0.86 0.83 0.83 0.87 0.89 0.96 1.00 1.02 1.00 1.00 1.05 1.08 1.17 1.24 1.28 1.28 1.25 1.24 1.26 1.25 1.25 1.22 1.22 1.21 1.24 1.27 1.25 1.23 1.28 1.38 1.40 1.42 1.47 1.49
1.01 0.95 0.90 0.89 0.90 0.92 0.90 0.88 0.87 0.86 0.83 0.83 0.88 0.88 0.90 0.93 0.94 0.94 0.97 1.02 1.07 1.16 1.22 1.23 1.22 1.20 1.22 1.24 1.24 1.21 1.21 1.20 1.20 1.22 1.19 1.20 1.24 1.29 1.36 1.35 1.35 1.40
1.12 1.06 0.98 0.93 0.88 0.87 0.86 0.86 0.86 0.85 0.83 0.83 0.83 0.85 0.87 0.84 0.83 0.85 0.89 0.93 0.98 1.04 1.13 1.19 1.21 1.19 1.20 1.20 1.19 1.19 1.19 1.22 1.21 1.20 1.17 1.16 1.19 1.21 1.28 1.30 1.30 1.29
1.22 1.14 1.07 0.99 0.92 0.87 0.84 0.83 0.84 0.84 0.86 0.83 0.81 0.82 0.87 0.86 0.82 0.83 0.86 0.88 0.89 0.93 1.00 1.09 1.14 1.16 1.19 1.18 1.16 1.14 1.13 1.14 1.16 1.14 1.12 1.12 1.13 1.15 1.20 1.27 1.26 1.25
1.28 1.23 1.16 1.07 0.98 0.93 0.87 0.85 0.84 0.84 0.85 0.83 0.83 0.85 0.84 0.85 0.85 0.84 0.85 0.88 0.87 0.89 0.92 0.97 1.05 1.10 1.13 1.15 1.14 1.13 1.10 1.08 1.09 1.09 1.07 1.07 1.09 1.12 1.17 1.20 1.20 1.21
1.31 1.28 1.21 1.13 1.05 1.00 0.93 0.90 0.87 0.84 0.86 0.84 0.83 0.82 0.84 0.84 0.84 0.87 0.87 0.87 0.86 0.86 0.89 0.93 0.96 1.01 1.03 1.06 1.10 1.12 1.11 1.08 1.07 1.06 1.04 1.03 1.03 1.05 1.11 1.16 1.16 1.15
1.33 1.30 1.25 1.19 1.13 1.07 1.01 0.97 0.93 0.88 0.84 0.85 0.86 0.82 0.82 0.83 0.82 0.82 0.84 0.86 0.87 0.88 0.90 0.92 0.97 0.99 1.00 1.01 1.03 1.07 1.09 1.10 1.09 1.07 1.04 1.02 1.00 1.00 1.04 1.08 1.08 1.09
1.37 1.33 1.30 1.26 1.22 1.16 1.11 1.05 1.00 0.95 0.91 0.86 0.86 0.85 0.82 0.81 0.83 0.82 0.81 0.81 0.84 0.88 0.90 0.91 0.95 1.00 1.02 1.03 1.04 1.07 1.08 1.07 1.06 1.06 1.06 1.04 1.00 0.98 0.99 1.03 1.04 1.03
1.44 1.42 1.38 1.34 1.30 1.26 1.21 1.13 1.07 1.02 0.97 0.93 0.91 0.87 0.84 0.82 0.82 0.82 0.83 0.82 0.81 0.84 0.86 0.90 0.92 0.95 0.98 1.02 1.04 1.05 1.06 1.07 1.06 1.04 1.03 1.04 1.02 1.00 0.99 0.98 0.98 0.99
1.51 1.52 1.50 1.45 1.40 1.35 1.29 1.22 1.14 1.08 1.04 1.00 0.96 0.92 0.89 0.86 0.83 0.83 0.83 0.83 0.83 0.84 0.86 0.90 0.91 0.92 0.95 0.97 0.99 1.01 1.05 1.05 1.06 1.05 1.04 1.02 1.02 1.02 1.01 0.98 0.96 0.96
1.55 1.57 1.56 1.52 1.47 1.40 1.34 1.30 1.23 1.16 1.09 1.04 1.00 0.97 0.94 0.91 0.89 0.87 0.85 0.84 0.83 0.83 0.86 0.90 0.93 0.95 0.96 0.96 0.97 0.98 1.01 1.03 1.06 1.07 1.07 1.06 1.03 1.01 1.02 1.02 0.98 0.96
1.57 1.56 1.57 1.52 1.48 1.44 1.40 1.35 1.30 1.25 1.17 1.10 1.06 1.03 0.99 0.96 0.94 0.90 0.88 0.87 0.86 0.85 0.84 0.87 0.92 0.96 0.96 0.96 0.97 0.99 1.02 1.03 1.02 1.04 1.07 1.07 1.06 1.03 0.98 0.99 0.99 0.98
1.57 1.55 1.53 1.51 1.51 1.46 1.40 1.36 1.33 1.29 1.24 1.18 1.12 1.08 1.06 1.04 0.99 0.94 0.92 0.91 0.91 0.91 0.90 0.90 0.91 0.94 0.96 0.97 0.98 0.99 1.03 1.03 1.04 1.03 1.05 1.06 1.05 1.04 1.01 1.00 0.98 0.97
1.58 1.50 1.46 1.47 1.47 1.46 1.44 1.40 1.33 1.29 1.26 1.22 1.15 1.13 1.13 1.08 1.02 1.00 0.96 0.96 0.94 0.92 0.92 0.94 0.94 0.95 0.97 0.99 1.00 1.02 1.04 1.07 1.08 1.08 1.06 1.05 1.05 1.03 1.01 0.99 0.97 0.96
1.81 1.71 1.58 1.52 1.52 1.51 1.49 1.44 1.37 1.28 1.25 1.25 1.22 1.21 1.17 1.13 1.11 1.05 1.02 0.99 0.97 0.95 0.95 0.97 0.98 0.98 0.97 0.98 1.01 1.04 1.07 1.11 1.12 1.12 1.10 1.08 1.06 1.05 1.02 0.99 0.97 0.95
1.88 1.84 1.72 1.65 1.61 1.56 1.51 1.45 1.40 1.35 1.28 1.26 1.24 1.20 1.17 1.15 1.13 1.09 1.06 1.04 1.02 1.02 1.00 1.00 1.01 1.03 1.03 1.03 1.04 1.07 1.10 1.14 1.16 1.16 1.14 1.12 1.11 1.08 1.05 1.01 0.99 0.98
1.82 1.77 1.72 1.66 1.60 1.55 1.48 1.42 1.40 1.38 1.33 1.30 1.26 1.23 1.22 1.22 1.21 1.19 1.13 1.09 1.07 1.06 1.03 1.00 1.04 1.09 1.10 1.09 1.09 1.10 1.13 1.18 1.19 1.17 1.15 1.14 1.11 1.09 1.05 1.02 1.00 0.98
1.85 1.79 1.73 1.67 1.60 1.52 1.46 1.42 1.40 1.40 1.42 1.44 1.33 1.25 1.19 1.17 1.17 1.18 1.18 1.15 1.10 1.07 1.03 1.00 1.04 1.11 1.14 1.13 1.12 1.13 1.17 1.21 1.22 1.21 1.19 1.15 1.10 1.07 1.04 1.01 0.99 0.98
1.91 1.87 1.78 1.73 1.68 1.57 1.51 1.51 1.53 1.53 1.50 1.52 1.41 1.31 1.22 1.18 1.19 1.20 1.22 1.21 1.15 1.09 1.07 1.02 1.02 1.09 1.13 1.13 1.14 1.16 1.20 1.21 1.24 1.22 1.18 1.14 1.09 1.08 1.06 1.02 0.98 0.97
1.97 1.93 1.86 1.80 1.74 1.68 1.66 1.62 1.60 1.57 1.57 1.58 1.53 1.47 1.36 1.29 1.25 1.22 1.21 1.22 1.21 1.18 1.15 1.10 1.07 1.10 1.13 1.13 1.14 1.17 1.23 1.27 1.27 1.24 1.17 1.11 1.07 1.03 1.05 1.02 0.98 0.98
1.99 1.93 1.88 1.83 1.77 1.76 1.76 1.72 1.73 1.73 1.70 1.62 1.58 1.57 1.50 1.41 1.32 1.26 1.21 1.20 1.23 1.24 1.21 1.18 1.14 1.13 1.14 1.15 1.15 1.18 1.23 1.27 1.29 1.23 1.14 1.08 1.06 1.01 0.97 1.00 1.00 0.99
Wind_Speed
24 24 23 23 23 22 21 20 19 18 17 17 16 15 15 14 13 13 12 11 10 10 9 8 8 7 6 6 6 5 5 4 4 4 4 4 4 4 4 4 4 4
25 24 24 24 23 23 22 21 20 19 18 18 17 16 15 15 14 13 12 12 11 10 10 9 8 8 7 6 6 5 5 5 4 4 4 4 4 4 3 3 3 3
26 25 25 25 24 24 22 21 21 20 19 18 17 17 16 15 15 14 13 13 12 11 10 10 9 9 8 7 7 6 5 5 5 4 4 4 4 3 3 3 3 3
27 26 26 25 25 24 23 22 21 21 20 19 18 18 17 16 15 14 14 13 13 12 11 11 10 9 9 8 8 7 6 5 5 4 4 4 4 3 3 3 3 3
27 27 26 26 26 25 24 23 22 21 21 20 20 19 18 17 16 15 15 14 13 13 12 11 11 10 10 9 9 8 8 7 6 5 5 4 4 4 3 3 3 3
27 27 27 26 26 26 25 25 24 23 22 21 20 20 19 18 18 17 16 15 14 14 13 13 12 12 11 11 10 9 9 8 7 7 6 6 5 4 4 4 4 4
27 27 27 27 27 26 26 26 25 24 23 22 21 21 21 20 19 18 17 17 16 15 14 14 13 13 12 12 11 10 9 9 8 8 7 7 6 6 5 5 5 5
28 27 27 27 27 27 27 26 26 25 24 24 23 22 22 21 21 20 19 18 18 17 16 15 15 14 13 13 12 11 11 10 9 9 8 8 8 7 7 6 6 6
29 28 28 28 28 27 27 27 26 26 25 25 24 23 23 22 22 21 20 19 19 18 18 17 16 15 15 14 13 13 12 11 10 10 9 9 9 9 8 8 8 7
30 29 29 28 28 28 28 28 27 26 26 26 25 25 24 23 22 22 21 21 20 19 19 18 18 17 16 15 15 14 14 13 12 12 11 10 10 10 10 9 9 9
30 30 30 29 29 29 28 28 28 27 27 26 26 26 25 24 24 23 23 22 22 21 20 20 19 19 18 17 16 16 15 14 14 13 13 12 11 11 11 11 11 10
30 30 30 30 30 30 29 29 28 28 28 27 27 26 26 25 25 24 24 23 23 22 22 21 21 20 19 19 18 17 16 16 15 14 14 14 13 12 12 12 12 12
30 30 30 31 31 30 30 29 29 29 29 28 28 27 27 26 26 25 25 24 24 23 23 23 22 21 21 20 19 19 18 17 16 16 15 15 14 14 13 13 13 13
31 31 30 30 31 31 31 30 30 29 29 29 29 28 28 27 27 26 26 25 25 24 24 24 24 23 22 22 21 20 20 19 18 18 17 16 16 15 15 15 14 14
31 31 31 30 31 31 31 31 31 30 30 30 29 29 29 28 28 27 27 26 26 25 25 25 25 25 24 23 23 22 21 21 20 20 19 18 18 17 17 16 16 15
31 31 31 31 31 31 31 31 31 31 31 30 30 30 29 29 29 28 28 27 27 26 26 25 25 25 26 25 25 23 23 22 22 21 21 20 20 19 19 18 17 16
30 31 31 31 31 31 31 31 31 31 31 31 31 30 30 30 29 29 29 28 28 27 27 26 26 26 26 26 26 25 24 23 23 23 22 22 21 21 20 20 19 18
29 30 30 31 31 31 31 31 31 31 31 31 31 31 30 30 30 30 29 29 28 28 27 27 27 27 27 27 27 26 26 25 24 24 23 23 23 22 22 21 20 19
27 28 29 30 30 31 31 31 31 31 31 31 31 31 31 30 30 30 30 29 29 28 28 28 27 28 28 28 27 27 27 26 25 25 24 24 24 23 23 22 22 21
26 27 27 29 30 30 30 31 31 31 31 31 31 31 31 31 30 30 30 30 30 29 28 28 28 28 28 28 28 28 27 27 26 26 25 25 24 24 24 23 23 22
27 27 27 28 29 29 29 30 30 30 31 31 31 31 31 31 31 31 30 30 30 29 29 28 28 28 29 29 29 28 28 27 26 26 26 26 25 25 24 24 24 23
29 28 28 28 28 29 29 29 29 29 30 30 31 31 31 31 31 31 31 31 30 30 30 29 29 29 29 29 29 29 28 27 27 26 26 26 26 26 25 25 24 24
30 29 29 29 29 29 28 28 28 29 29 29 30 30 30 31 31 31 31 31 31 30 30 29 29 29 29 29 29 29 28 27 27 27 26 26 26 26 26 26 25 25
31 30 30 30 29 29 29 29 29 28 28 29 29 29 29 30 30 30 30 30 31 30 30 30 29 29 29 30 30 30 29 28 27 27 26 26 26 26 26 26 26 26
32 32 31 31 30 30 30 30 29 29 29 28 29 29 28 28 29 29 30 30 30 30 30 30 29 29 29 30 30 30 30 29 28 27 27 27 26 26 26 26 27 27
34 33 32 31 31 31 30 30 30 30 29 29 29 29 28 28 28 28 29 29 29 30 30 30 29 29 29 30 30 30 30 30 29 28 28 28 27 26 26 26 26 27
Wind_Direction
201 200 200 200 200 201 200 199 199 199 199 198 196 195 195 195 195 194 195 194 193 192 190 188 186 182 177 174 170 164 162 162 154 148 148 145 145 145 144 143 139 135
203 203 202 201 202 203 203 202 201 201 201 201 201 199 198 198 199 198 198 197 197 198 196 193 192 189 184 182 181 176 172 173 169 161 159 156 153 155 156 152 147 143
205 204 204 203 204 204 205 204 203 204 204 204 205 204 202 201 202 202 202 201 201 202 202 199 198 196 192 189 190 190 186 183 181 177 173 169 165 166 167 163 158 152
206 206 205 206 206 206 207 206 206 206 206 206 207 207 206 205 205 205 205 205 205 205 206 205 202 202 200 197 197 199 199 196 193 189 187 185 184 184 183 180 179 173
207 207 207 207 208 208 209 209 209 208 208 209 209 209 209 209 209 208 208 209 209 208 209 209 207 207 206 205 205 205 207 206 205 203 202 200 198 200 200 198 198 194
209 209 209 209 209 210 210 211 212 211 210 211 211 212 212 212 212 212 212 213 214 213 212 212 211 210 210 210 210 211 211 212 212 211 213 215 213 212 212 210 209 209
211 210 210 210 211 211 212 213 214 214 213 214 214 215 215 215 216 216 215 216 217 218 217 216 215 214 213 213 213 214 214 215 216 216 219 221 220 221 220 219 220 219
213 212 212 212 212 213 213 214 215 216 216 216 217 218 218 218 219 219 219 218 219 220 221 220 218 217 216 215 216 217 217 217 218 219 222 224 224 226 226 226 227 227
215 214 214 213 214 214 215 215 216 217 217 218 219 220 220 220 221 221 221 221 221 221 222 223 222 220 219 218 219 220 221 222 222 223 225 227 227 230 230 230 231 232
215 216 215 215 215 216 216 216 217 218 218 218 219 220 222 222 222 222 222 223 223 222 222 223 224 223 223 222 222 222 224 225 227 228 230 231 231 232 233 234 234 234
215 216 216 217 217 217 218 218 219 219 219 220 220 221 222 223 223 223 223 224 224 224 224 224 225 225 226 226 226 226 226 228 230 231 233 235 236 235 235 236 236 238
215 216 216 217 218 219 219 219 220 220 221 221 221 222 222 223 224 224 224 224 225 225 226 226 226 227 228 229 229 229 230 231 232 233 234 237 238 238 238 238 239 240
215 216 217 218 219 220 220 221 221 221 222 222 222 223 223 224 224 225 226 226 226 226 226 227 228 229 230 230 231 232 232 233 234 235 236 237 239 241 241 241 241 242
217 217 218 219 220 220 221 221 222 222 223 223 224 224 224 224 225 226 227 227 228 227 227 228 229 230 231 232 232 233 234 235 236 237 238 238 239 241 242 243 244 245
218 218 219 219 220 221 222 222 223 223 224 224 224 225 225 226 226 227 227 228 229 229 229 229 229 230 231 233 233 234 234 236 237 238 239 240 241 242 243 244 245 246
218 218 219 220 220 221 222 223 223 223 224 225 225 226 226 226 227 227 228 229 229 230 230 230 231 231 232 232 234 235 235 237 238 239 239 241 242 243 245 245 246 247
218 218 219 220 221 221 222 223 223 223 224 225 225 226 227 227 227 228 228 229 230 231 231 231 232 233 233 233 234 235 236 237 238 239 240 241 242 244 245 246 247 248
218 219 220 220 221 221 222 223 223 224 224 224 225 226 227 227 228 228 229 230 230 231 232 232 233 233 233 234 235 235 236 238 239 240 241 242 243 244 245 246 248 249
218 219 220 221 221 221 222 223 223 224 224 224 225 226 227 227 228 229 229 230 231 232 232 233 234 234 234 235 235 236 236 238 239 240 241 242 243 243 245 246 247 249
219 220 221 221 221 222 222 223 223 224 225 225 225 226 226 227 228 229 230 230 231 232 233 234 234 234 234 234 235 236 237 238 239 240 241 242 243 243 244 245 247 248
221 222 222 221 221 221 222 223 223 224 225 226 226 226 227 227 228 229 230 231 232 233 234 234 235 234 234 234 235 236 237 238 239 240 241 242 243 243 244 245 247 248
223 223 223 221 220 220 221 222 223 224 225 225 226 227 228 228 229 230 230 231 232 233 234 235 235 234 234 234 235 235 236 238 240 240 241 242 243 244 245 246 247 248
224 224 224 223 221 220 220 221 223 224 224 225 226 227 228 228 229 230 231 232 232 233 234 235 235 235 234 235 235 236 236 238 239 240 242 243 244 245 245 246 247 248
225 225 225 224 222 221 220 221 222 223 224 224 225 226 227 228 229 230 231 231 232 233 234 235 236 236 235 235 235 236 236 238 239 240 242 243 244 245 246 246 247 248
226 225 224 224 224 222 221 221 222 223 224 225 225 226 227 228 229 230 230 231 232 233 234 235 236 236 236 236 236 236 237 238 239 240 241 243 245 246 247 247 248 248
224 223 223 224 225 224 223 223 223 223 224 225 226 227 228 228 229 229 230 231 231 232 233 234 236 237 236 236 237 237 237 238 239 240 241 243 245 246 247 248 248 249